Vorticity
9 8 8 7 8 7 8 7 7 9 6 7 9 10 16 11 -11 -2 12 3 1 0 10 10 2 9 5 5 5 2 9 8 -0 -1 -0 0 1 -1 -2 -1 -0 1 2 2 2 2 3 4 3 4 4 3 3 2 3 4 4 5 6 5 4 5 5 4 8 10 8 6 4 2 3 6 8 7 6 5 6 6 6 6 6 7 6 8 8 7 7 8 9 8 7 7 5 6 5 2 3
9 9 8 8 9 7 8 8 7 8 8 8 9 13 11 3 -2 8 9 -1 0 -1 8 12 8 11 8 7 4 3 5 3 3 4 -1 -4 -3 -3 -1 -3 -2 1 2 3 3 4 5 4 4 5 4 4 4 3 5 6 6 6 6 5 5 6 6 4 7 11 8 6 4 3 4 6 7 6 6 4 5 6 6 6 7 8 6 8 8 8 7 7 9 9 7 7 6 6 6 3 3
9 8 9 8 9 8 9 8 7 10 11 12 12 18 12 1 5 9 3 -0 7 8 7 5 5 8 10 7 9 15 11 5 6 5 4 4 4 1 4 4 4 5 5 6 5 6 5 5 6 5 5 5 5 7 8 7 7 6 4 6 6 6 7 6 6 11 9 6 5 4 5 6 5 4 6 5 5 5 5 6 6 7 6 7 8 8 7 8 9 10 7 6 8 6 6 5 2
8 9 9 9 11 9 10 8 8 8 8 14 17 23 16 7 10 5 4 6 6 8 8 5 6 11 15 13 15 16 12 11 6 4 6 6 5 1 4 5 4 5 6 7 6 7 6 6 6 5 6 6 8 9 8 6 6 4 4 7 8 6 8 10 7 9 8 7 7 6 6 4 4 4 5 5 5 5 5 6 6 6 6 6 7 8 7 8 9 10 9 5 7 6 6 6 3
8 9 9 9 10 9 11 10 9 7 11 12 5 16 13 0 6 5 5 10 9 7 7 8 7 7 10 15 14 5 3 6 3 7 8 5 3 2 5 5 6 6 6 7 7 7 6 6 6 6 7 8 8 6 6 6 4 4 6 9 10 7 9 11 8 9 7 8 9 6 5 3 4 5 5 6 5 5 5 6 6 5 6 7 7 8 7 8 8 9 10 7 6 6 5 6 4
9 9 10 11 10 9 9 9 11 9 15 9 -10 4 8 -7 -2 8 10 7 9 9 8 11 9 6 6 8 7 2 1 2 2 4 3 3 3 4 6 6 7 5 7 8 7 7 6 6 7 8 8 8 6 5 6 5 7 11 12 11 11 9 9 8 7 8 7 10 9 5 4 3 4 4 6 6 4 4 5 6 5 5 6 7 8 7 7 8 9 9 11 9 6 6 5 6 5
8 9 10 10 11 10 8 8 11 10 17 16 -2 -6 -7 -6 4 13 14 8 9 8 7 8 7 8 8 5 5 6 6 6 6 5 4 6 5 6 6 6 6 6 8 7 7 8 7 8 7 8 8 7 5 6 5 6 13 17 17 14 11 10 7 1 0 4 6 9 8 5 4 3 4 5 8 6 3 4 5 6 5 6 6 7 8 7 7 8 9 9 10 9 8 8 7 6 5
8 10 9 9 11 10 11 10 10 11 16 19 8 -5 -11 2 14 13 10 9 10 8 8 10 7 6 4 4 7 6 5 6 6 5 7 7 5 6 6 6 6 7 8 7 8 8 7 7 5 6 6 5 4 4 5 9 12 7 10 14 13 12 7 1 -1 3 5 6 6 5 4 4 4 6 9 5 2 4 5 5 5 5 6 7 8 7 7 6 8 9 9 9 9 10 8 6 5
10 9 9 10 9 9 11 10 12 11 6 6 4 -1 -2 6 9 7 7 7 7 8 9 9 9 9 6 6 3 2 3 3 4 5 6 6 4 5 5 5 7 7 7 7 7 6 6 4 5 6 3 2 3 6 8 11 8 0 4 10 11 12 10 7 4 6 7 4 4 5 4 4 4 7 8 3 2 5 5 5 5 5 6 7 8 8 6 5 7 8 9 9 10 10 9 6 6
10 9 10 9 9 12 10 10 14 11 2 -1 3 4 5 10 9 8 9 7 6 8 8 7 8 5 6 11 5 4 7 4 5 5 4 4 4 6 5 5 7 7 7 7 7 6 4 5 6 4 2 6 8 10 12 12 8 5 7 6 6 9 9 6 6 10 10 6 3 2 3 3 5 9 4 1 4 5 5 5 5 5 6 6 7 7 6 6 5 6 8 9 10 10 10 8 6
9 9 9 9 10 11 11 14 15 17 8 -3 6 9 6 13 11 9 10 8 8 7 6 9 11 6 8 18 13 6 3 2 5 4 3 4 4 5 4 4 7 9 7 7 8 7 6 6 6 6 7 9 9 11 13 13 10 10 9 7 6 7 6 5 7 9 8 6 3 1 2 4 9 8 1 1 5 5 6 5 5 5 6 6 6 7 7 7 6 6 6 8 10 10 11 8 6
9 9 10 9 10 11 13 14 14 21 14 7 14 8 10 17 10 10 10 8 8 5 9 11 11 10 12 14 5 -0 1 3 5 4 5 5 5 5 6 8 9 10 8 9 9 9 9 5 6 8 7 8 11 11 13 12 10 11 10 9 9 7 6 5 6 9 7 3 -0 0 2 6 10 5 0 3 5 6 6 4 5 6 7 8 7 7 7 8 7 6 6 7 9 10 11 8 6
8 8 10 9 9 10 9 6 6 2 -3 9 12 4 17 18 8 9 8 8 8 6 10 8 7 9 8 2 -6 -3 3 4 5 6 6 4 6 7 9 10 9 9 9 9 9 8 6 4 7 5 6 13 11 11 15 14 10 11 11 10 9 9 10 6 7 10 9 7 1 -2 2 8 6 1 2 5 6 6 5 4 5 7 7 6 6 6 7 7 8 8 7 6 8 10 11 8 7
8 9 8 9 11 9 4 2 5 0 6 16 5 3 12 9 7 9 8 12 9 6 8 9 11 10 7 2 -1 3 4 5 7 5 5 7 9 9 10 11 9 8 8 7 5 7 5 7 8 6 13 11 9 17 17 12 11 13 13 13 13 11 9 6 9 9 8 14 10 -3 2 9 3 0 5 6 7 5 4 5 5 6 6 4 5 6 7 8 8 8 8 7 8 10 11 9 8
9 8 7 10 9 9 10 6 2 5 17 13 3 15 13 5 10 8 9 9 8 13 14 16 11 6 12 9 6 8 7 8 6 5 9 10 10 9 10 10 7 5 6 4 3 6 7 8 4 8 14 6 14 19 8 14 19 16 13 14 18 14 8 7 11 9 4 14 18 5 5 9 4 5 9 7 6 4 5 6 3 3 5 6 7 7 8 9 8 8 8 8 7 10 11 10 8
8 7 10 11 8 11 14 14 5 0 8 -0 1 22 15 6 11 9 12 9 11 17 13 13 3 -0 9 6 8 8 5 4 2 8 11 9 10 9 7 6 5 4 5 5 5 5 5 6 4 13 16 15 24 14 9 22 15 12 14 12 17 18 13 15 20 13 6 13 17 11 11 13 11 9 7 6 5 5 7 5 3 5 6 9 9 9 10 9 9 8 7 8 7 9 11 11 9
8 9 11 11 12 12 7 12 13 5 5 1 3 16 8 5 12 6 11 12 10 14 8 5 1 2 4 4 14 7 -2 0 3 10 9 9 9 5 4 4 5 6 7 10 11 7 6 7 10 17 14 12 12 4 10 6 -2 9 13 13 16 16 11 14 24 20 14 12 10 13 15 13 10 4 3 6 8 9 10 8 6 8 8 9 9 9 9 9 10 9 8 8 8 8 10 12 11
9 10 11 12 14 12 6 6 13 9 -3 -2 12 18 5 5 14 7 12 12 7 12 5 1 5 5 2 3 7 0 -1 4 7 10 7 8 6 4 6 3 6 8 9 11 10 7 7 7 10 14 9 7 1 -3 0 -4 8 14 9 16 12 6 6 8 16 16 15 12 15 22 16 7 -0 -2 4 9 11 10 10 10 9 8 8 7 8 8 9 9 8 8 8 7 8 9 9 11 12
10 10 10 11 11 9 6 -5 -6 -0 -10 -4 15 17 6 8 12 5 11 14 13 14 4 7 8 4 8 4 0 2 6 8 9 8 5 6 3 4 6 4 9 8 4 5 7 7 8 7 9 10 7 9 5 -0 2 6 14 7 13 25 7 2 9 8 11 14 19 18 20 18 8 2 -3 2 10 9 10 11 9 8 8 7 7 7 8 9 8 8 8 7 8 8 9 10 10 11 12
9 8 9 14 10 -0 1 1 -4 -2 -3 4 12 11 10 12 11 3 6 14 16 11 8 13 5 11 18 -1 -1 8 9 9 8 5 3 3 -0 5 12 12 12 8 3 3 6 5 8 15 16 12 7 7 9 9 12 11 7 7 23 17 -4 3 10 16 22 18 17 16 12 5 1 -1 -2 8 10 8 10 8 7 7 8 8 7 8 9 10 9 9 9 8 8 7 7 10 12 11 11
9 6 11 14 7 -4 -2 10 9 5 6 10 11 11 12 12 14 9 4 8 9 3 10 12 6 20 13 -9 5 10 6 9 5 3 3 2 3 13 15 2 -0 5 6 8 13 6 8 15 6 0 4 11 14 13 11 8 8 15 18 3 -0 10 10 20 24 13 10 11 12 9 10 8 8 15 8 7 11 8 9 8 8 8 7 8 8 8 8 10 9 10 10 8 7 9 12 11 10
8 6 12 3 -2 6 6 2 3 8 11 11 8 8 10 12 13 11 6 6 6 5 8 7 10 19 -1 -6 15 9 6 8 3 1 3 9 12 14 7 -5 2 10 9 13 13 5 10 15 2 -0 8 13 14 13 12 10 12 11 5 3 11 13 10 13 5 5 14 11 11 12 11 9 11 11 1 4 9 6 7 8 9 8 8 8 7 6 6 8 8 11 14 12 11 9 10 10 11
7 8 14 3 1 14 9 1 7 11 9 8 8 7 9 11 11 12 11 7 5 6 7 3 6 8 -7 -5 6 5 8 5 1 2 5 11 8 4 1 2 8 9 9 10 7 9 18 16 7 13 16 11 10 15 16 14 15 13 8 7 9 6 6 4 -9 1 16 9 7 8 5 4 7 4 0 6 7 2 4 16 19 9 9 9 7 9 8 9 8 9 11 10 10 9 11 11 11
7 7 9 5 7 9 -1 3 11 7 5 7 7 8 9 8 8 10 10 5 0 2 9 7 2 -1 -8 -3 4 6 7 2 2 7 7 6 3 1 0 0 1 2 6 5 8 17 20 14 12 21 22 14 9 10 10 9 9 10 11 8 9 9 7 5 -2 -0 6 7 10 8 3 -0 2 5 6 8 6 5 5 11 12 2 10 15 12 16 15 17 17 15 12 5 6 9 12 12 10
8 6 5 5 9 5 -2 6 9 3 5 7 6 7 7 4 4 8 9 5 1 1 5 8 8 5 -1 3 10 6 5 5 4 7 7 5 4 2 4 9 9 7 2 5 15 18 21 22 23 23 17 14 13 8 7 9 6 6 11 10 7 5 4 10 11 5 1 5 9 7 8 3 2 6 7 9 9 11 4 -0 6 3 5 8 5 7 6 10 16 14 11 5 5 8 8 11 12
7 5 5 6 9 7 2 5 6 4 4 5 7 7 6 6 3 5 9 8 9 8 5 4 6 9 6 5 8 5 6 7 3 7 7 6 5 3 10 13 12 11 5 18 25 13 19 23 18 16 10 10 10 8 10 12 12 11 12 11 6 -0 2 11 18 17 8 7 10 6 8 9 10 8 5 11 9 10 9 3 10 13 8 6 5 6 3 7 12 8 9 11 8 6 5 7 12
6 5 5 5 7 6 5 5 4 6 5 5 8 7 6 8 4 2 9 9 7 8 8 6 5 7 7 5 8 6 6 6 6 7 4 5 6 7 14 10 12 15 16 31 22 1 13 14 6 11 10 8 7 10 12 7 9 11 3 3 6 6 9 11 14 18 8 3 11 10 6 9 13 11 10 14 8 6 14 9 9 14 13 12 12 13 10 10 9 3 11 17 11 9 8 7 8
6 7 6 6 8 5 4 5 5 6 5 6 8 7 4 8 11 9 15 15 5 5 8 6 5 8 6 3 6 7 5 5 6 5 4 5 4 9 13 10 13 15 22 29 6 -4 13 8 2 7 6 6 4 6 10 7 9 11 6 10 15 16 13 6 5 11 9 4 8 10 8 8 9 8 7 11 10 9 14 15 14 14 13 11 11 15 15 12 10 7 11 14 10 12 10 8 7
6 9 7 6 8 7 6 5 5 5 6 7 5 5 3 8 13 2 4 12 7 6 8 5 6 7 4 3 4 7 5 3 6 5 4 5 4 11 11 10 15 14 24 21 -4 -1 18 12 6 9 10 12 8 2 6 11 13 13 13 15 11 10 11 6 6 9 9 7 5 6 6 8 9 8 6 5 9 11 10 14 13 9 11 11 9 12 13 12 13 11 10 10 10 13 11 10 11
6 8 9 8 7 7 6 6 5 3 6 6 5 6 3 7 10 2 2 7 6 7 7 5 7 9 4 2 5 6 6 3 6 6 4 5 5 10 9 9 16 19 20 8 -9 -1 17 18 7 5 13 16 15 11 9 6 9 11 8 8 4 6 11 5 2 4 4 5 5 7 6 8 9 10 11 9 9 11 10 13 13 9 12 13 9 10 10 10 11 10 13 15 16 20 13 9 13
10 9 8 8 8 7 6 6 4 4 6 4 8 7 2 8 5 3 10 5 5 9 8 6 7 11 7 7 9 5 8 7 5 5 4 6 7 11 11 7 14 26 17 -10 -13 0 6 12 6 6 14 8 6 13 13 8 11 7 -4 1 6 6 6 -3 -5 2 5 6 3 5 7 8 9 9 12 13 13 12 8 9 10 9 9 11 12 11 10 10 8 12 19 10 13 25 9 2 13
11 13 11 9 8 7 12 15 4 2 8 4 7 4 5 18 6 4 18 4 3 10 7 7 5 9 10 9 10 5 8 9 3 5 5 8 11 10 10 7 8 19 9 -18 -10 3 -2 8 8 7 16 9 6 12 7 5 14 14 3 2 -1 -9 -7 -6 -2 4 5 6 3 4 7 7 8 8 9 10 13 13 9 7 6 6 7 9 13 10 8 10 7 9 15 6 13 23 1 -1 12
10 11 11 11 11 7 6 18 13 1 8 5 6 7 2 14 12 14 29 8 1 10 5 7 6 7 10 6 8 8 8 7 3 6 8 9 11 8 7 10 6 2 -1 -11 -6 -2 -3 13 13 11 19 8 6 13 6 2 6 8 5 0 -2 -3 2 7 7 6 7 9 6 5 5 7 8 8 8 8 10 9 8 10 6 4 9 10 10 10 9 11 7 3 7 7 16 13 -7 -0 10
11 13 12 10 13 10 -5 10 28 10 4 4 4 12 -3 3 14 1 12 13 2 8 6 6 8 7 9 7 7 8 7 8 6 6 9 9 8 8 7 10 10 3 0 -2 -0 -1 0 14 14 13 16 1 2 12 7 3 -1 -3 1 4 8 11 11 13 11 7 7 6 7 7 4 5 6 6 9 9 9 8 6 9 5 2 10 13 5 6 9 10 8 6 6 6 13 9 -1 7 11
13 11 12 13 14 17 -5 -4 32 21 4 4 -1 9 -6 -6 14 -11 -13 9 5 5 7 5 8 7 7 7 6 6 6 8 5 3 8 9 8 8 7 7 10 8 4 1 2 1 -1 6 9 7 6 -1 3 9 5 3 1 3 9 10 10 10 8 9 8 7 6 5 6 7 5 5 6 5 6 7 8 10 8 7 5 -2 4 12 8 5 8 10 10 11 8 6 8 7 7 13 11
27 26 16 14 10 20 5 -16 17 25 6 8 -2 5 3 -11 2 -6 -13 3 3 4 6 4 7 5 4 5 5 4 3 3 2 3 7 9 8 7 7 6 7 8 6 3 1 1 1 3 8 10 6 -0 3 9 5 0 5 10 10 9 8 7 7 5 5 7 7 7 8 7 7 5 6 7 6 6 7 9 9 8 7 0 -3 6 9 5 5 8 11 9 7 8 8 6 8 11 8
3 29 22 14 3 13 21 -10 -1 17 5 9 5 -0 9 4 -1 -0 2 6 4 3 4 5 5 2 4 4 5 4 2 1 1 2 5 7 7 6 7 5 6 8 6 4 5 7 6 4 8 12 9 1 4 10 2 -4 7 12 7 6 5 4 4 3 3 5 4 6 7 8 9 6 6 9 7 7 6 7 9 8 8 5 2 5 6 6 7 5 6 7 5 9 11 8 9 9 7
-12 17 14 11 6 6 26 9 -4 13 8 2 8 3 3 9 5 4 10 8 4 4 4 5 4 4 5 5 5 4 3 3 2 2 3 4 5 6 8 6 6 7 8 10 11 11 9 6 8 11 10 4 5 8 -1 -1 9 7 4 5 4 4 4 4 3 3 4 5 6 7 9 8 8 9 8 8 7 7 9 9 9 7 7 8 5 5 7 3 6 11 7 8 10 8 8 8 7
9 19 12 8 12 4 14 22 3 6 16 6 5 11 6 4 5 6 9 6 3 6 6 4 5 6 6 5 6 5 4 4 3 4 3 3 5 5 6 7 4 5 12 13 9 10 9 8 9 10 11 4 12 18 -1 -2 9 3 4 5 4 6 4 5 5 5 6 6 6 7 7 8 7 7 8 8 8 7 7 9 10 9 9 11 9 6 4 5 10 12 9 9 9 7 8 7 6
10 17 16 5 14 6 -8 13 19 1 5 11 5 9 14 10 5 1 1 4 6 6 7 7 7 7 5 5 5 6 8 7 6 6 6 4 5 6 5 7 6 4 9 8 6 9 9 12 11 10 9 2 21 29 -2 -2 12 4 4 5 4 7 4 6 7 6 8 7 8 8 7 9 7 7 8 7 8 8 8 9 9 10 10 10 12 10 7 6 5 5 7 8 6 6 7 8 8
11 13 18 4 7 17 -8 -9 27 25 5 5 1 -3 8 12 8 6 6 7 8 8 8 8 8 8 7 6 7 10 10 9 10 8 9 8 6 7 6 7 8 7 8 9 11 10 9 15 10 9 12 6 21 18 -9 1 11 2 7 7 6 9 7 9 9 8 8 7 9 9 9 10 9 9 9 9 9 8 9 10 9 10 9 9 10 10 10 8 3 2 5 6 5 6 7 8 10
14 10 21 9 -9 17 24 -8 -1 22 18 11 3 -4 3 14 17 15 11 7 8 10 9 9 11 8 8 8 9 15 16 13 12 9 11 10 8 9 9 9 10 9 9 10 12 9 9 14 10 14 11 5 20 6 -16 2 10 4 8 6 7 10 10 12 11 10 9 8 10 10 10 12 12 13 14 13 11 10 9 7 6 5 5 7 9 10 11 11 10 7 6 6 6 6 6 7 9
14 11 18 6 -20 -1 29 19 1 4 16 21 16 10 8 14 21 18 13 10 9 11 10 9 10 11 14 14 15 21 18 12 11 9 9 9 8 9 8 9 8 8 9 9 11 10 10 11 10 12 4 6 22 2 -13 6 9 5 8 7 10 11 11 13 11 10 9 9 9 9 9 9 11 14 15 15 12 10 9 6 4 -1 -3 -0 4 9 10 11 12 10 8 7 6 5 5 6 6
15 20 25 7 -6 -2 -1 12 19 6 7 18 22 22 11 3 10 16 21 19 11 15 20 16 14 16 16 12 16 19 14 14 14 6 7 10 9 8 6 6 6 7 7 8 10 10 12 14 12 9 5 17 17 -11 -7 13 10 8 9 9 12 11 11 11 9 10 8 8 9 8 7 5 6 9 10 12 10 10 10 9 7 2 -3 -6 -4 5 9 10 12 11 11 8 7 6 4 4 5
3 9 34 16 4 14 2 4 18 9 4 10 18 23 14 6 10 11 19 22 14 16 22 20 16 13 11 10 14 15 12 17 11 -2 5 10 5 6 5 5 7 6 7 9 9 12 14 10 12 12 14 31 24 -4 4 14 6 9 9 9 12 8 9 8 8 9 8 9 10 8 7 4 4 4 4 6 5 6 7 7 9 7 4 0 -2 3 6 8 10 12 12 9 8 8 5 5 4
-5 -4 27 20 4 13 13 10 12 9 4 4 12 17 11 11 10 1 5 19 19 13 12 15 13 11 13 13 12 13 11 10 3 -5 4 7 3 7 6 5 9 8 12 15 8 11 16 10 13 12 8 21 19 1 6 9 6 10 7 8 10 7 9 9 7 6 5 6 4 3 4 2 3 3 3 4 4 5 5 5 9 8 7 6 4 6 6 6 8 11 14 11 9 9 7 7 6
4 7 18 16 8 9 12 12 8 6 9 7 8 12 11 6 4 7 11 13 12 8 9 10 9 14 18 13 9 11 6 4 8 6 3 2 4 9 9 8 10 8 12 20 14 5 7 11 14 11 11 17 7 -4 5 9 5 6 6 8 9 9 10 6 3 2 1 2 2 3 3 2 4 5 6 7 7 8 8 8 9 9 9 8 7 9 9 8 6 8 14 14 11 9 9 9 8
8 10 12 14 13 11 14 16 8 5 12 14 7 10 15 2 3 25 24 8 4 6 13 15 14 18 15 10 15 15 5 3 11 10 2 3 7 9 8 7 6 6 8 13 11 -0 -3 6 8 6 15 17 1 0 14 14 7 6 7 8 8 7 6 3 2 1 -0 2 4 5 7 7 8 8 9 9 9 10 11 12 12 11 13 13 13 15 14 13 8 7 12 15 13 10 9 10 9
10 7 8 13 12 8 14 17 11 6 7 11 9 13 19 3 -0 18 13 3 10 12 15 19 21 20 13 13 15 7 3 6 6 5 2 5 11 9 6 7 5 4 5 3 3 2 1 7 8 5 11 12 0 -1 3 3 7 10 5 4 7 5 3 3 1 -1 2 5 6 7 10 9 6 6 8 9 11 13 12 15 15 13 13 13 16 17 17 16 13 11 12 13 13 12 11 11 11
11 10 10 11 6 0 8 14 10 10 8 9 8 6 13 8 1 4 -5 -7 8 9 7 10 11 10 6 11 10 -3 3 12 5 3 5 4 10 9 5 12 11 4 4 3 3 6 5 7 12 12 18 22 11 1 -1 -3 2 11 9 4 4 3 2 3 1 2 4 5 7 10 8 6 6 11 16 16 16 14 12 15 17 13 10 10 12 14 16 16 15 15 15 13 12 12 12 12 11
11 13 13 10 4 -3 6 14 8 11 13 12 11 8 11 12 7 6 -5 -10 4 8 5 6 6 5 2 4 8 3 8 11 2 4 9 3 5 9 4 9 14 7 4 5 6 7 4 4 8 10 20 26 11 3 11 8 -1 5 12 7 3 4 4 2 1 4 7 9 11 10 6 3 7 17 23 20 16 12 9 11 13 11 9 9 9 10 13 14 16 17 17 16 14 12 11 11 11
11 11 9 7 5 -1 4 12 7 5 5 6 11 11 8 6 6 12 8 3 9 8 2 4 3 4 5 5 5 5 5 2 -2 3 6 -0 1 6 2 4 10 5 -2 2 7 7 6 8 6 3 12 21 14 12 19 13 -1 -1 8 9 6 4 2 1 5 9 9 8 8 6 5 3 4 9 14 16 14 10 8 8 8 8 7 7 7 9 12 13 14 15 15 15 14 12 11 9 9
10 10 5 3 7 4 4 15 20 10 -2 -1 10 14 11 7 4 7 11 12 12 7 4 7 4 1 4 5 3 4 3 1 2 2 -1 -1 4 3 -1 2 6 3 -2 -0 3 5 7 7 6 4 5 12 19 21 16 8 0 -5 -0 9 9 4 2 2 5 8 7 7 8 7 6 5 4 4 7 13 15 13 12 12 11 9 8 7 7 9 12 13 14 14 14 12 10 9 9 8 8
4 12 13 5 5 4 -4 3 19 19 4 -3 5 13 14 12 10 9 10 7 6 9 9 8 5 3 2 2 3 4 4 2 2 -2 -5 1 6 3 3 4 2 1 3 3 3 7 6 4 7 8 5 8 18 26 19 5 -0 -3 1 13 13 7 9 8 4 6 8 8 8 8 6 6 6 6 8 11 12 14 15 14 14 15 13 10 9 10 12 14 14 11 10 9 7 6 6 6 6
-6 1 11 7 7 12 4 -6 -2 6 9 4 3 8 9 8 10 15 18 11 5 8 11 9 9 7 2 0 2 3 4 4 2 1 2 4 3 2 4 5 1 1 5 4 3 3 3 6 7 3 -1 -2 8 27 24 4 1 1 -5 8 18 9 6 9 8 8 6 4 6 8 8 8 8 9 10 9 9 12 13 9 9 13 15 10 7 10 14 13 11 8 6 4 4 4 4 4 5
-1 -4 3 3 2 5 7 7 4 2 7 11 9 9 14 13 4 1 10 16 14 12 11 9 9 8 5 2 2 2 2 4 4 5 6 5 3 2 3 5 5 4 3 4 4 4 5 9 9 4 -0 -4 3 24 21 6 18 22 1 5 20 15 7 10 10 8 5 5 7 6 4 6 8 9 9 9 10 12 13 10 5 7 16 17 10 9 11 10 9 7 4 4 3 4 4 4 5
11 6 4 3 4 3 1 5 10 8 6 11 13 6 9 14 6 -2 2 7 12 14 12 10 8 7 7 6 5 5 3 4 5 4 4 4 3 2 1 4 6 2 1 1 0 -1 0 5 10 9 6 2 4 16 16 8 15 20 10 3 -2 -3 4 10 10 8 7 7 5 3 4 5 6 7 7 8 9 11 13 13 11 9 13 19 20 16 11 8 7 5 4 4 4 4 3 4 4
12 14 12 6 3 7 9 6 5 4 -0 3 12 12 12 14 8 6 10 10 11 12 12 13 11 8 7 5 5 5 4 4 4 3 4 4 4 4 5 6 5 4 7 9 7 6 5 2 -4 -9 -3 5 7 11 18 11 -11 -19 -2 4 -7 -4 9 9 7 6 6 6 5 5 7 6 6 8 7 6 7 9 11 13 16 15 10 12 19 20 15 11 8 5 4 4 3 2 2 2 4
Height
5839 5840 5840 5840 5841 5841 5841 5842 5842 5843 5843 5844 5845 5848 5849 5849 5846 5847 5848 5845 5847 5845 5844 5847 5845 5847 5849 5849 5850 5850 5851 5851 5851 5850 5849 5847 5847 5847 5848 5848 5848 5848 5848 5848 5847 5847 5847 5847 5847 5847 5847 5847 5847 5847 5847 5846 5846 5845 5844 5844 5843 5843 5842 5841 5840 5839 5839 5839 5838 5838 5838 5838 5838 5837 5837 5836 5836 5836 5835 5835 5835 5834 5834 5833 5833 5833 5832 5832 5832 5832 5832 5832 5832 5832 5832 5832 5832
5836 5837 5837 5837 5838 5838 5838 5840 5839 5840 5840 5842 5843 5845 5848 5844 5841 5846 5845 5840 5841 5842 5843 5845 5845 5846 5847 5847 5847 5847 5848 5848 5848 5847 5847 5846 5845 5845 5846 5846 5846 5847 5846 5846 5846 5846 5846 5846 5846 5846 5845 5845 5846 5845 5845 5845 5844 5844 5843 5842 5841 5841 5840 5839 5838 5837 5837 5837 5837 5836 5836 5836 5836 5836 5835 5835 5834 5834 5834 5834 5833 5833 5833 5832 5832 5832 5832 5832 5831 5831 5831 5831 5831 5831 5831 5832 5832
5833 5833 5834 5834 5834 5835 5835 5836 5837 5838 5839 5840 5841 5844 5845 5840 5840 5842 5839 5837 5838 5841 5842 5843 5843 5844 5845 5844 5844 5845 5845 5844 5844 5844 5844 5844 5844 5844 5845 5844 5845 5845 5845 5845 5845 5845 5845 5845 5844 5844 5844 5844 5844 5844 5844 5843 5843 5842 5841 5840 5839 5839 5838 5837 5836 5835 5835 5835 5835 5834 5835 5834 5834 5834 5834 5834 5833 5833 5833 5832 5832 5832 5831 5831 5831 5831 5831 5831 5831 5830 5830 5830 5831 5831 5831 5831 5831
5830 5830 5831 5831 5831 5832 5832 5833 5834 5836 5837 5838 5841 5843 5841 5837 5838 5836 5834 5836 5837 5840 5840 5840 5842 5842 5842 5842 5842 5843 5842 5841 5841 5841 5841 5842 5842 5843 5843 5843 5843 5843 5843 5843 5843 5843 5843 5843 5842 5842 5842 5842 5843 5843 5842 5841 5841 5840 5839 5838 5837 5836 5835 5835 5834 5834 5833 5833 5833 5833 5833 5833 5833 5833 5833 5832 5832 5832 5832 5831 5831 5830 5830 5830 5830 5830 5830 5830 5830 5830 5830 5830 5830 5830 5830 5830 5831
5827 5827 5828 5828 5828 5829 5829 5830 5831 5833 5835 5838 5842 5843 5837 5834 5833 5830 5831 5835 5837 5838 5838 5838 5839 5839 5839 5839 5840 5840 5839 5838 5838 5839 5839 5839 5840 5840 5841 5842 5841 5841 5842 5842 5842 5841 5841 5841 5840 5840 5840 5841 5841 5840 5840 5839 5839 5838 5837 5836 5835 5834 5833 5833 5832 5832 5832 5831 5831 5831 5831 5831 5831 5831 5831 5831 5831 5831 5830 5830 5829 5829 5829 5829 5830 5830 5829 5829 5829 5829 5829 5829 5829 5829 5829 5830 5830
5824 5824 5825 5825 5825 5826 5827 5827 5828 5830 5832 5835 5839 5837 5831 5828 5826 5827 5831 5835 5835 5836 5836 5836 5836 5837 5837 5837 5836 5836 5836 5836 5836 5836 5836 5837 5837 5838 5839 5840 5840 5839 5840 5840 5840 5840 5839 5839 5839 5839 5839 5839 5838 5838 5837 5837 5836 5835 5834 5833 5832 5832 5831 5831 5831 5830 5830 5830 5829 5829 5829 5830 5830 5830 5830 5830 5830 5830 5830 5829 5829 5828 5828 5828 5828 5828 5828 5828 5828 5828 5828 5828 5828 5828 5829 5829 5829
5821 5821 5822 5822 5822 5824 5824 5825 5826 5828 5829 5831 5833 5829 5825 5822 5824 5829 5831 5832 5833 5833 5834 5834 5834 5835 5835 5834 5833 5833 5834 5834 5833 5834 5835 5835 5835 5836 5837 5838 5838 5838 5838 5838 5838 5838 5838 5838 5837 5837 5837 5836 5836 5835 5835 5834 5834 5832 5831 5830 5830 5829 5829 5829 5829 5828 5828 5828 5828 5828 5828 5828 5828 5828 5828 5828 5829 5829 5828 5828 5828 5828 5827 5827 5827 5827 5827 5827 5827 5827 5827 5827 5827 5827 5828 5828 5829
5818 5818 5819 5820 5820 5821 5821 5823 5824 5826 5827 5827 5827 5823 5820 5822 5825 5829 5828 5829 5830 5830 5832 5832 5833 5833 5833 5832 5831 5831 5831 5831 5832 5832 5833 5833 5834 5834 5835 5836 5836 5836 5837 5837 5837 5836 5836 5836 5836 5835 5834 5834 5833 5833 5832 5831 5831 5830 5829 5828 5827 5827 5827 5826 5826 5826 5826 5826 5826 5826 5826 5826 5826 5827 5827 5827 5827 5827 5827 5827 5827 5827 5826 5826 5826 5826 5825 5825 5825 5825 5826 5826 5826 5827 5827 5827 5828
5815 5815 5816 5817 5817 5818 5819 5820 5822 5824 5824 5822 5822 5820 5818 5821 5825 5825 5826 5827 5826 5828 5829 5829 5831 5831 5831 5831 5829 5828 5828 5829 5830 5830 5831 5831 5832 5833 5833 5834 5834 5835 5835 5835 5835 5834 5835 5834 5834 5833 5832 5831 5830 5830 5829 5828 5827 5827 5826 5825 5824 5824 5824 5824 5823 5823 5824 5824 5824 5825 5825 5825 5825 5825 5825 5825 5825 5825 5826 5826 5826 5825 5825 5825 5824 5824 5824 5824 5824 5824 5825 5825 5825 5826 5826 5826 5827
5812 5813 5814 5815 5815 5816 5817 5818 5820 5821 5822 5819 5817 5817 5818 5820 5822 5822 5824 5824 5824 5826 5825 5827 5829 5828 5829 5828 5826 5826 5826 5827 5828 5828 5828 5829 5830 5830 5831 5832 5833 5833 5833 5833 5833 5833 5833 5832 5831 5830 5829 5828 5827 5826 5826 5825 5824 5823 5823 5822 5822 5822 5822 5821 5821 5821 5821 5822 5822 5822 5823 5823 5823 5823 5823 5823 5823 5823 5824 5824 5824 5824 5824 5824 5823 5823 5823 5823 5823 5823 5823 5824 5824 5825 5825 5825 5826
5809 5810 5811 5812 5813 5814 5815 5817 5817 5819 5819 5816 5815 5816 5817 5819 5820 5820 5821 5821 5821 5823 5823 5825 5826 5826 5827 5825 5823 5824 5825 5825 5826 5826 5826 5827 5828 5828 5829 5831 5831 5831 5830 5830 5830 5830 5830 5830 5829 5828 5826 5825 5824 5823 5822 5821 5821 5820 5820 5819 5819 5819 5819 5819 5819 5819 5819 5820 5820 5820 5820 5821 5821 5822 5821 5821 5821 5822 5822 5822 5823 5823 5822 5822 5822 5821 5821 5822 5822 5822 5822 5822 5823 5823 5824 5824 5824
5807 5808 5809 5810 5811 5813 5814 5816 5818 5819 5815 5813 5815 5814 5815 5818 5818 5818 5819 5819 5819 5820 5821 5822 5823 5824 5825 5822 5821 5822 5823 5824 5824 5824 5824 5825 5826 5827 5828 5829 5829 5828 5828 5828 5828 5828 5828 5827 5826 5825 5823 5821 5820 5819 5818 5817 5817 5817 5817 5817 5817 5817 5817 5817 5817 5817 5817 5818 5818 5818 5818 5818 5819 5820 5820 5820 5820 5821 5821 5821 5821 5821 5821 5820 5820 5820 5820 5820 5820 5820 5820 5821 5822 5822 5823 5823 5823
5804 5805 5807 5807 5809 5811 5812 5814 5817 5816 5812 5812 5813 5810 5814 5816 5815 5816 5817 5817 5817 5818 5819 5820 5821 5822 5823 5821 5819 5820 5821 5821 5822 5822 5823 5824 5825 5827 5827 5827 5827 5826 5826 5825 5826 5826 5825 5825 5823 5822 5819 5818 5816 5815 5814 5813 5814 5814 5814 5814 5814 5814 5814 5815 5815 5815 5815 5816 5816 5816 5816 5816 5817 5818 5818 5818 5819 5819 5819 5819 5819 5819 5819 5819 5819 5819 5819 5819 5819 5819 5819 5819 5820 5821 5821 5821 5822
5802 5803 5804 5805 5807 5808 5810 5812 5813 5812 5812 5811 5807 5808 5813 5813 5812 5814 5815 5816 5816 5816 5817 5818 5819 5821 5820 5818 5817 5818 5819 5820 5820 5820 5821 5823 5824 5826 5825 5825 5825 5824 5824 5823 5824 5824 5823 5822 5821 5818 5816 5815 5813 5812 5811 5810 5811 5811 5812 5813 5812 5812 5812 5812 5813 5813 5813 5813 5814 5814 5814 5814 5815 5816 5816 5817 5817 5817 5817 5818 5817 5817 5817 5817 5817 5817 5817 5817 5818 5818 5817 5817 5818 5819 5819 5819 5820
5799 5800 5801 5803 5804 5806 5807 5809 5810 5811 5812 5807 5802 5808 5810 5808 5810 5811 5812 5814 5814 5814 5816 5816 5817 5819 5817 5815 5816 5817 5818 5818 5819 5819 5821 5822 5823 5823 5823 5822 5822 5822 5821 5821 5822 5821 5820 5820 5819 5816 5814 5813 5812 5809 5809 5808 5808 5809 5810 5810 5810 5810 5810 5811 5811 5811 5812 5812 5812 5813 5812 5812 5813 5814 5814 5815 5815 5816 5816 5817 5817 5816 5816 5816 5815 5815 5816 5816 5816 5816 5816 5816 5816 5817 5817 5818 5818
5796 5798 5799 5801 5802 5804 5806 5806 5807 5809 5809 5802 5800 5807 5806 5806 5809 5809 5810 5812 5812 5813 5814 5814 5815 5816 5815 5814 5815 5814 5816 5817 5818 5819 5820 5820 5821 5821 5821 5820 5820 5819 5819 5819 5820 5819 5818 5818 5817 5815 5811 5811 5811 5808 5808 5807 5807 5808 5807 5806 5807 5808 5809 5810 5809 5810 5811 5811 5811 5811 5810 5810 5812 5812 5813 5813 5813 5814 5815 5815 5815 5815 5815 5814 5814 5814 5814 5814 5815 5815 5815 5815 5815 5815 5816 5816 5817
5794 5795 5796 5798 5800 5803 5804 5804 5805 5807 5805 5798 5798 5805 5804 5804 5806 5807 5809 5809 5810 5811 5811 5811 5813 5813 5814 5813 5812 5813 5815 5816 5817 5818 5818 5818 5819 5819 5819 5819 5818 5816 5817 5817 5818 5817 5816 5816 5816 5812 5809 5810 5810 5807 5806 5806 5807 5807 5805 5803 5805 5807 5808 5808 5808 5809 5810 5810 5809 5808 5808 5809 5810 5811 5811 5811 5811 5812 5813 5814 5814 5813 5813 5812 5812 5812 5812 5813 5813 5813 5813 5813 5813 5813 5814 5814 5815
5791 5792 5794 5796 5798 5801 5802 5803 5803 5803 5800 5794 5798 5803 5802 5802 5804 5805 5806 5806 5808 5808 5808 5809 5809 5810 5812 5812 5811 5812 5814 5815 5816 5816 5816 5816 5816 5816 5816 5816 5816 5814 5814 5815 5816 5815 5814 5815 5813 5809 5809 5809 5807 5805 5805 5805 5806 5806 5804 5802 5805 5807 5807 5807 5807 5808 5808 5808 5808 5808 5809 5809 5809 5809 5809 5809 5810 5811 5812 5812 5812 5811 5811 5811 5810 5810 5810 5811 5811 5811 5811 5812 5812 5812 5812 5812 5813
5789 5790 5792 5793 5796 5799 5798 5798 5797 5796 5795 5793 5798 5802 5800 5801 5803 5803 5804 5805 5805 5806 5805 5806 5806 5807 5809 5810 5809 5810 5812 5813 5813 5813 5814 5813 5812 5813 5813 5813 5813 5813 5813 5813 5813 5812 5812 5813 5810 5807 5809 5808 5805 5804 5803 5804 5804 5804 5801 5800 5804 5806 5807 5807 5806 5807 5807 5806 5807 5807 5808 5808 5807 5807 5807 5807 5809 5810 5810 5810 5810 5809 5809 5809 5809 5809 5809 5809 5809 5809 5809 5810 5810 5811 5810 5810 5811
5787 5788 5790 5791 5794 5795 5792 5792 5792 5792 5793 5794 5797 5799 5799 5800 5801 5802 5802 5803 5803 5803 5803 5803 5804 5804 5805 5806 5807 5808 5809 5810 5811 5811 5811 5809 5809 5810 5811 5811 5811 5812 5812 5811 5812 5811 5809 5809 5808 5807 5808 5806 5804 5803 5802 5802 5803 5803 5800 5799 5802 5805 5805 5805 5805 5806 5806 5805 5807 5807 5807 5806 5804 5804 5805 5805 5808 5808 5809 5808 5808 5808 5807 5807 5807 5807 5807 5807 5807 5808 5808 5808 5809 5809 5809 5809 5809
5785 5785 5788 5790 5791 5790 5788 5789 5790 5789 5792 5793 5796 5797 5797 5798 5799 5800 5800 5801 5801 5801 5801 5801 5802 5802 5802 5804 5805 5806 5807 5808 5808 5808 5808 5806 5807 5809 5811 5811 5811 5811 5811 5811 5811 5811 5809 5807 5806 5807 5805 5802 5801 5801 5800 5801 5801 5801 5801 5800 5801 5803 5803 5804 5803 5805 5805 5805 5806 5806 5806 5804 5801 5801 5804 5804 5806 5807 5806 5806 5806 5805 5805 5805 5805 5805 5805 5805 5805 5806 5806 5806 5806 5806 5807 5807 5807
5782 5783 5786 5786 5785 5786 5786 5786 5786 5788 5790 5792 5794 5794 5795 5796 5797 5798 5798 5799 5799 5799 5800 5800 5800 5799 5800 5802 5803 5804 5804 5805 5805 5806 5806 5806 5808 5810 5810 5810 5810 5809 5809 5810 5810 5811 5809 5806 5805 5806 5803 5799 5798 5799 5800 5800 5800 5800 5800 5801 5801 5802 5802 5803 5803 5803 5804 5803 5803 5802 5802 5801 5797 5799 5803 5803 5804 5804 5803 5803 5803 5803 5803 5803 5803 5804 5803 5803 5803 5803 5804 5804 5804 5804 5804 5805 5805
5780 5782 5784 5783 5783 5785 5783 5782 5785 5787 5788 5790 5791 5792 5793 5794 5794 5795 5797 5797 5797 5798 5799 5799 5800 5799 5798 5799 5800 5801 5802 5802 5802 5804 5806 5806 5807 5808 5808 5808 5808 5807 5808 5809 5809 5809 5807 5805 5804 5804 5802 5798 5795 5796 5798 5800 5800 5799 5800 5801 5802 5802 5801 5801 5801 5801 5801 5801 5801 5800 5799 5798 5796 5798 5801 5801 5800 5801 5799 5800 5800 5800 5801 5801 5802 5802 5801 5801 5801 5801 5802 5802 5802 5802 5802 5803 5803
5778 5779 5781 5781 5782 5782 5780 5781 5784 5784 5785 5787 5789 5790 5791 5792 5792 5793 5794 5794 5794 5796 5797 5798 5799 5798 5797 5797 5798 5799 5799 5799 5800 5802 5804 5804 5803 5805 5806 5805 5805 5805 5806 5806 5807 5807 5805 5804 5803 5801 5799 5798 5797 5795 5796 5798 5799 5799 5800 5801 5802 5801 5801 5800 5799 5799 5799 5799 5799 5799 5798 5797 5797 5799 5800 5798 5798 5798 5798 5799 5797 5797 5799 5799 5801 5801 5799 5798 5799 5799 5800 5800 5801 5801 5801 5802 5802
5776 5777 5778 5778 5779 5779 5778 5780 5782 5782 5783 5785 5787 5788 5789 5790 5789 5790 5792 5791 5793 5794 5795 5796 5796 5797 5797 5795 5796 5797 5797 5797 5799 5800 5801 5800 5800 5802 5803 5803 5803 5803 5803 5804 5806 5804 5803 5802 5800 5799 5796 5797 5799 5796 5795 5797 5797 5798 5798 5799 5799 5800 5799 5798 5797 5796 5796 5797 5798 5797 5797 5797 5798 5800 5800 5798 5798 5797 5797 5797 5797 5797 5797 5798 5798 5799 5798 5798 5797 5797 5798 5799 5799 5800 5800 5800 5801
5774 5775 5775 5776 5777 5777 5777 5778 5780 5780 5781 5783 5785 5786 5786 5787 5787 5789 5790 5789 5791 5792 5793 5794 5794 5794 5795 5794 5794 5795 5795 5796 5798 5798 5798 5798 5798 5799 5800 5801 5802 5802 5802 5802 5804 5802 5800 5799 5798 5798 5796 5796 5797 5795 5794 5794 5794 5795 5796 5796 5797 5798 5797 5796 5795 5794 5795 5796 5796 5796 5796 5796 5797 5798 5799 5798 5798 5797 5796 5796 5797 5797 5796 5796 5796 5796 5796 5796 5796 5796 5797 5798 5798 5798 5799 5800 5800
5771 5771 5772 5773 5774 5775 5775 5776 5778 5779 5779 5780 5782 5784 5784 5784 5785 5787 5787 5787 5789 5790 5790 5792 5792 5792 5792 5793 5793 5793 5793 5795 5796 5796 5796 5796 5796 5797 5799 5800 5800 5800 5801 5801 5801 5800 5798 5798 5797 5797 5795 5794 5794 5793 5792 5792 5793 5794 5794 5794 5795 5795 5795 5794 5793 5793 5793 5794 5794 5795 5795 5795 5796 5797 5798 5798 5797 5797 5796 5796 5796 5796 5796 5795 5795 5794 5794 5795 5795 5795 5796 5797 5797 5797 5798 5799 5799
5767 5769 5770 5771 5773 5773 5773 5774 5776 5777 5777 5779 5781 5782 5782 5782 5784 5786 5785 5785 5786 5787 5789 5790 5791 5790 5790 5791 5791 5791 5792 5793 5794 5794 5793 5793 5794 5796 5797 5798 5798 5799 5799 5799 5799 5798 5797 5797 5796 5796 5793 5792 5792 5791 5791 5792 5793 5793 5793 5793 5793 5793 5793 5793 5791 5791 5792 5793 5794 5794 5794 5795 5796 5797 5797 5797 5797 5796 5796 5795 5795 5795 5794 5794 5794 5794 5794 5794 5795 5795 5796 5796 5796 5795 5796 5798 5798
5764 5767 5768 5769 5771 5771 5771 5773 5774 5775 5776 5777 5778 5778 5779 5781 5784 5785 5782 5783 5785 5786 5787 5788 5789 5788 5788 5789 5790 5789 5790 5791 5791 5791 5791 5792 5793 5795 5796 5796 5797 5798 5798 5798 5798 5796 5796 5796 5795 5794 5791 5789 5791 5790 5790 5792 5793 5792 5793 5792 5793 5793 5792 5791 5789 5790 5792 5792 5792 5791 5792 5795 5796 5796 5797 5797 5797 5796 5796 5795 5794 5793 5792 5792 5793 5794 5794 5794 5795 5795 5795 5795 5795 5795 5795 5796 5798
5762 5764 5766 5767 5768 5768 5770 5771 5771 5773 5774 5775 5776 5776 5777 5780 5783 5782 5780 5781 5783 5784 5785 5786 5787 5786 5786 5787 5787 5786 5787 5789 5789 5789 5789 5790 5792 5793 5794 5795 5796 5797 5797 5797 5796 5795 5794 5794 5793 5792 5791 5787 5788 5791 5791 5791 5792 5791 5791 5792 5793 5792 5793 5791 5788 5789 5791 5790 5790 5790 5791 5793 5794 5795 5795 5796 5796 5796 5795 5794 5793 5791 5791 5791 5792 5793 5793 5794 5794 5794 5793 5793 5794 5794 5794 5795 5796
5760 5762 5763 5764 5765 5766 5768 5769 5769 5771 5771 5773 5774 5775 5777 5778 5780 5779 5778 5780 5781 5782 5783 5784 5784 5784 5784 5785 5784 5784 5785 5787 5787 5787 5787 5789 5790 5792 5793 5794 5794 5795 5796 5795 5794 5792 5792 5792 5791 5790 5792 5789 5786 5790 5792 5791 5791 5791 5791 5792 5793 5792 5792 5792 5788 5788 5789 5790 5789 5790 5792 5792 5793 5794 5794 5795 5795 5795 5794 5794 5792 5790 5789 5790 5790 5791 5792 5792 5792 5793 5793 5793 5793 5793 5794 5795 5796
5757 5758 5759 5761 5763 5765 5768 5766 5766 5769 5769 5771 5772 5774 5776 5778 5780 5777 5776 5779 5779 5780 5781 5781 5782 5782 5782 5782 5782 5783 5784 5785 5785 5785 5786 5787 5789 5790 5792 5792 5793 5794 5794 5793 5791 5790 5789 5789 5789 5789 5791 5791 5788 5788 5790 5790 5790 5791 5791 5790 5790 5790 5790 5789 5788 5788 5788 5789 5790 5790 5792 5792 5792 5793 5793 5794 5794 5794 5793 5793 5791 5788 5788 5789 5789 5790 5790 5790 5791 5792 5792 5793 5792 5791 5792 5793 5795
5753 5754 5756 5759 5760 5765 5768 5764 5763 5768 5767 5767 5770 5772 5776 5779 5781 5776 5773 5776 5777 5778 5779 5779 5780 5780 5780 5780 5780 5781 5782 5783 5783 5784 5785 5786 5787 5789 5790 5791 5792 5793 5792 5791 5789 5787 5787 5788 5789 5789 5790 5792 5790 5788 5788 5789 5789 5788 5789 5788 5787 5788 5787 5788 5789 5789 5789 5789 5790 5790 5791 5791 5792 5792 5792 5793 5793 5793 5793 5792 5789 5787 5787 5788 5788 5789 5789 5789 5790 5792 5791 5792 5792 5791 5791 5792 5794
5750 5752 5754 5757 5759 5762 5767 5763 5760 5765 5765 5764 5768 5771 5774 5777 5778 5774 5771 5774 5776 5776 5777 5777 5778 5778 5778 5779 5778 5779 5781 5781 5781 5782 5784 5784 5786 5787 5788 5790 5790 5791 5790 5789 5787 5786 5786 5788 5788 5788 5790 5791 5790 5788 5788 5789 5789 5787 5786 5786 5786 5787 5787 5788 5788 5788 5788 5788 5789 5789 5790 5790 5790 5791 5791 5791 5792 5792 5792 5791 5789 5786 5786 5787 5788 5788 5789 5789 5790 5791 5791 5791 5792 5791 5791 5793 5794
5748 5750 5752 5755 5757 5759 5763 5764 5759 5760 5763 5763 5765 5769 5772 5772 5772 5770 5771 5773 5773 5774 5775 5775 5776 5776 5777 5777 5776 5778 5779 5779 5779 5781 5782 5783 5784 5785 5786 5788 5789 5789 5788 5787 5786 5786 5786 5787 5787 5787 5788 5789 5788 5789 5789 5789 5788 5787 5785 5785 5785 5786 5787 5787 5786 5786 5786 5787 5787 5788 5789 5789 5789 5789 5790 5790 5791 5791 5790 5789 5788 5785 5784 5786 5787 5787 5788 5789 5790 5790 5790 5790 5791 5791 5792 5793 5793
5747 5749 5750 5752 5755 5756 5759 5765 5759 5756 5759 5761 5763 5766 5768 5770 5769 5767 5769 5771 5771 5772 5773 5773 5774 5774 5775 5775 5775 5776 5776 5776 5777 5779 5781 5782 5783 5784 5785 5786 5786 5787 5786 5785 5785 5785 5785 5785 5786 5786 5786 5787 5787 5788 5789 5788 5787 5786 5785 5785 5785 5785 5785 5785 5785 5785 5785 5785 5786 5786 5787 5787 5788 5788 5788 5789 5789 5790 5789 5788 5787 5785 5783 5784 5785 5785 5786 5787 5789 5789 5789 5789 5790 5791 5792 5792 5792
5743 5745 5747 5749 5753 5753 5756 5762 5756 5751 5757 5759 5761 5764 5765 5768 5768 5765 5766 5768 5769 5769 5770 5771 5772 5772 5773 5773 5774 5774 5774 5775 5776 5778 5780 5780 5781 5782 5783 5783 5784 5783 5783 5782 5783 5784 5783 5782 5783 5784 5785 5785 5785 5786 5787 5786 5785 5785 5785 5784 5784 5785 5784 5784 5784 5784 5784 5784 5785 5785 5786 5786 5787 5787 5787 5787 5788 5788 5788 5787 5786 5785 5784 5784 5783 5784 5785 5786 5787 5788 5788 5789 5789 5790 5791 5790 5790
5738 5741 5744 5746 5750 5752 5756 5759 5751 5747 5754 5758 5759 5762 5763 5764 5766 5765 5763 5764 5767 5767 5768 5769 5770 5770 5771 5771 5772 5773 5773 5774 5775 5777 5778 5779 5780 5780 5781 5781 5780 5780 5780 5781 5783 5783 5781 5781 5782 5782 5783 5784 5783 5784 5784 5784 5783 5783 5783 5783 5783 5783 5783 5783 5783 5783 5783 5783 5784 5784 5785 5785 5785 5786 5786 5786 5786 5786 5786 5786 5785 5785 5784 5783 5783 5783 5784 5785 5786 5787 5788 5789 5788 5789 5789 5788 5788
5737 5739 5742 5745 5748 5751 5755 5754 5745 5744 5752 5756 5757 5759 5760 5761 5763 5764 5760 5761 5764 5764 5765 5768 5768 5768 5768 5769 5769 5770 5772 5772 5773 5775 5776 5777 5778 5778 5779 5778 5777 5777 5778 5780 5781 5781 5780 5780 5781 5781 5781 5781 5781 5781 5781 5781 5781 5781 5781 5782 5782 5782 5782 5782 5782 5782 5782 5782 5783 5783 5784 5784 5784 5784 5785 5785 5785 5785 5785 5785 5784 5784 5784 5783 5783 5783 5783 5784 5785 5786 5787 5787 5787 5787 5787 5787 5787
5735 5737 5739 5743 5745 5749 5751 5748 5742 5744 5751 5755 5755 5756 5757 5758 5759 5760 5758 5759 5761 5762 5764 5766 5766 5767 5766 5766 5767 5768 5770 5770 5771 5772 5774 5775 5776 5776 5776 5776 5775 5775 5777 5778 5779 5779 5778 5777 5778 5778 5778 5779 5778 5779 5779 5778 5778 5779 5780 5780 5781 5781 5781 5781 5780 5780 5781 5781 5781 5782 5782 5783 5783 5783 5783 5783 5784 5784 5784 5784 5784 5784 5784 5783 5782 5782 5783 5783 5784 5784 5785 5785 5785 5786 5787 5787 5787
5733 5735 5737 5740 5744 5747 5748 5744 5741 5744 5748 5751 5752 5752 5753 5754 5755 5757 5756 5757 5759 5760 5762 5763 5764 5764 5763 5764 5765 5766 5767 5767 5769 5770 5771 5773 5773 5773 5774 5774 5773 5773 5774 5776 5776 5777 5776 5775 5775 5775 5775 5775 5775 5777 5776 5774 5775 5777 5777 5778 5778 5779 5779 5779 5779 5779 5779 5780 5780 5780 5781 5781 5782 5782 5782 5782 5782 5783 5782 5782 5783 5783 5783 5782 5782 5781 5782 5782 5783 5783 5784 5784 5784 5785 5786 5786 5786
5731 5733 5735 5738 5742 5745 5744 5740 5739 5743 5746 5748 5750 5750 5751 5752 5752 5754 5754 5755 5756 5758 5759 5760 5761 5761 5761 5761 5762 5763 5764 5765 5766 5768 5769 5770 5771 5771 5772 5772 5772 5772 5772 5773 5773 5774 5773 5772 5771 5771 5771 5771 5772 5773 5772 5772 5773 5774 5774 5775 5776 5776 5777 5777 5777 5778 5778 5779 5779 5779 5779 5780 5780 5781 5781 5781 5781 5781 5781 5781 5781 5781 5781 5782 5781 5781 5781 5782 5783 5783 5782 5782 5783 5783 5784 5784 5784
5729 5731 5734 5736 5738 5740 5741 5738 5739 5743 5745 5745 5747 5748 5750 5750 5749 5750 5751 5752 5753 5755 5756 5756 5757 5757 5758 5758 5758 5760 5761 5762 5764 5766 5767 5767 5768 5769 5769 5770 5770 5770 5770 5769 5769 5768 5768 5766 5766 5767 5768 5768 5769 5770 5769 5769 5770 5771 5771 5772 5773 5774 5775 5775 5776 5776 5777 5777 5777 5778 5778 5778 5779 5779 5780 5780 5780 5780 5780 5780 5780 5780 5780 5780 5780 5780 5780 5781 5781 5781 5781 5780 5781 5782 5782 5782 5782
5728 5730 5731 5732 5734 5735 5737 5737 5738 5742 5742 5741 5743 5746 5748 5747 5746 5747 5748 5749 5751 5751 5752 5753 5753 5753 5754 5754 5755 5757 5759 5760 5762 5763 5764 5764 5765 5766 5767 5768 5768 5768 5767 5765 5764 5763 5762 5762 5762 5765 5768 5767 5767 5767 5766 5767 5767 5767 5768 5769 5770 5772 5772 5773 5774 5774 5775 5775 5776 5776 5776 5777 5777 5778 5778 5779 5779 5779 5779 5779 5779 5779 5779 5778 5778 5779 5779 5779 5779 5779 5778 5778 5779 5779 5780 5780 5781
5726 5727 5728 5730 5731 5732 5734 5735 5738 5740 5739 5739 5742 5743 5744 5745 5744 5744 5745 5746 5748 5748 5748 5749 5749 5750 5750 5751 5753 5755 5757 5759 5759 5759 5760 5761 5762 5763 5764 5765 5765 5764 5762 5760 5760 5759 5759 5760 5761 5764 5766 5766 5765 5763 5762 5763 5763 5764 5765 5767 5768 5769 5770 5771 5771 5772 5773 5774 5774 5775 5775 5775 5775 5776 5776 5777 5777 5778 5778 5778 5778 5777 5777 5777 5776 5776 5777 5776 5776 5776 5776 5776 5777 5777 5778 5779 5779
5723 5724 5725 5727 5730 5731 5732 5734 5737 5738 5737 5738 5740 5740 5742 5745 5743 5741 5742 5744 5745 5745 5745 5746 5747 5747 5748 5749 5751 5753 5755 5757 5758 5758 5758 5759 5760 5760 5761 5761 5760 5760 5760 5760 5760 5761 5762 5763 5763 5763 5764 5764 5764 5760 5758 5760 5761 5762 5764 5766 5767 5767 5768 5769 5769 5770 5771 5772 5773 5773 5774 5774 5774 5775 5775 5775 5775 5775 5776 5776 5776 5776 5775 5775 5775 5774 5774 5774 5774 5775 5775 5775 5776 5776 5777 5777 5778
5721 5723 5725 5726 5728 5729 5730 5732 5734 5735 5734 5736 5739 5738 5741 5744 5741 5739 5741 5742 5742 5741 5742 5744 5746 5746 5746 5747 5748 5751 5753 5756 5757 5757 5758 5758 5757 5756 5757 5758 5760 5761 5763 5763 5763 5764 5764 5764 5764 5764 5764 5764 5762 5759 5758 5759 5761 5762 5764 5765 5766 5766 5766 5767 5768 5769 5770 5771 5772 5772 5773 5773 5773 5774 5773 5773 5773 5773 5773 5773 5774 5774 5774 5773 5773 5772 5772 5772 5773 5773 5773 5774 5774 5775 5776 5776 5777
5720 5722 5724 5725 5726 5727 5729 5730 5731 5731 5732 5734 5736 5737 5738 5740 5739 5738 5738 5738 5739 5739 5740 5742 5743 5744 5745 5746 5747 5749 5752 5754 5754 5756 5757 5756 5754 5753 5755 5758 5760 5760 5761 5762 5762 5762 5763 5763 5763 5763 5764 5764 5762 5761 5761 5761 5761 5763 5764 5764 5764 5764 5765 5766 5767 5768 5769 5770 5770 5770 5771 5771 5772 5772 5772 5771 5771 5771 5770 5771 5771 5771 5771 5771 5771 5770 5770 5770 5771 5771 5772 5772 5773 5774 5774 5774 5775
5718 5721 5722 5723 5724 5725 5727 5728 5729 5730 5731 5733 5734 5735 5736 5737 5737 5735 5734 5734 5737 5739 5739 5740 5742 5744 5746 5746 5746 5747 5749 5750 5752 5754 5755 5753 5751 5753 5755 5756 5757 5757 5758 5759 5760 5761 5761 5761 5761 5760 5761 5761 5760 5761 5762 5762 5762 5762 5762 5762 5762 5763 5764 5765 5766 5766 5767 5768 5768 5769 5769 5770 5770 5770 5770 5769 5769 5768 5768 5768 5768 5769 5769 5769 5768 5768 5768 5768 5769 5769 5770 5770 5771 5771 5772 5772 5773
5717 5719 5720 5721 5723 5723 5724 5726 5728 5729 5730 5731 5732 5732 5734 5735 5733 5731 5731 5733 5736 5738 5738 5739 5740 5742 5744 5746 5746 5746 5746 5748 5750 5752 5752 5751 5751 5754 5755 5754 5755 5755 5756 5756 5758 5759 5760 5759 5759 5758 5758 5757 5757 5758 5759 5760 5761 5762 5761 5761 5761 5762 5763 5764 5764 5765 5765 5766 5767 5767 5767 5768 5768 5768 5767 5767 5766 5766 5766 5766 5766 5766 5767 5766 5766 5766 5766 5766 5767 5767 5768 5768 5769 5769 5769 5770 5771
5716 5718 5719 5720 5721 5722 5723 5725 5727 5728 5729 5729 5729 5730 5731 5732 5731 5730 5731 5732 5733 5735 5736 5737 5738 5739 5740 5742 5742 5744 5746 5747 5749 5750 5750 5750 5751 5753 5753 5752 5753 5753 5753 5755 5756 5757 5757 5757 5757 5757 5756 5755 5755 5756 5756 5757 5758 5760 5760 5761 5761 5761 5761 5762 5763 5764 5764 5764 5765 5765 5765 5766 5766 5765 5765 5764 5764 5764 5764 5764 5764 5765 5765 5765 5764 5764 5764 5764 5765 5765 5765 5766 5766 5767 5767 5767 5768
5714 5716 5716 5718 5720 5721 5722 5723 5723 5725 5726 5726 5727 5728 5729 5728 5728 5729 5730 5731 5730 5731 5732 5733 5735 5736 5737 5737 5737 5740 5744 5745 5746 5747 5748 5749 5750 5750 5751 5750 5750 5751 5751 5753 5753 5754 5754 5754 5755 5756 5755 5755 5754 5755 5756 5756 5756 5758 5759 5760 5759 5759 5760 5761 5762 5762 5762 5762 5763 5764 5764 5763 5763 5763 5762 5762 5762 5762 5762 5762 5762 5763 5763 5763 5763 5762 5763 5763 5763 5763 5763 5763 5764 5764 5765 5765 5766
5713 5713 5714 5717 5719 5720 5720 5720 5721 5722 5723 5724 5725 5726 5726 5725 5725 5726 5727 5729 5729 5729 5730 5731 5733 5735 5736 5736 5735 5735 5739 5742 5745 5747 5748 5748 5748 5749 5749 5748 5747 5748 5749 5750 5751 5752 5752 5752 5753 5753 5754 5754 5753 5754 5755 5755 5756 5757 5758 5758 5757 5757 5758 5759 5760 5760 5760 5761 5761 5762 5761 5762 5761 5761 5760 5760 5759 5760 5760 5760 5760 5761 5761 5761 5761 5761 5761 5761 5761 5761 5761 5761 5761 5762 5762 5763 5763
5710 5712 5714 5715 5716 5716 5717 5718 5719 5720 5721 5723 5723 5723 5724 5724 5724 5724 5724 5726 5727 5728 5729 5731 5732 5734 5735 5735 5735 5734 5736 5740 5742 5744 5746 5747 5747 5747 5746 5745 5745 5746 5747 5748 5749 5749 5749 5749 5749 5751 5751 5751 5751 5752 5753 5754 5755 5755 5755 5755 5755 5755 5756 5757 5758 5758 5759 5759 5759 5760 5760 5760 5759 5759 5758 5758 5758 5758 5758 5758 5758 5759 5759 5759 5759 5759 5759 5759 5759 5759 5759 5759 5760 5760 5760 5761 5761
5706 5709 5711 5712 5713 5714 5715 5716 5717 5718 5719 5721 5721 5722 5723 5723 5722 5721 5722 5723 5724 5726 5728 5729 5730 5732 5733 5734 5735 5735 5736 5738 5739 5741 5743 5744 5745 5746 5745 5744 5744 5744 5744 5744 5745 5746 5746 5745 5746 5748 5749 5748 5748 5750 5751 5752 5752 5753 5753 5754 5754 5753 5753 5754 5755 5756 5757 5757 5758 5758 5758 5758 5757 5757 5756 5756 5756 5756 5756 5756 5757 5757 5757 5757 5757 5757 5757 5758 5758 5758 5758 5758 5758 5758 5759 5759 5759
5704 5705 5707 5708 5710 5712 5712 5713 5714 5716 5717 5718 5720 5720 5720 5720 5719 5718 5719 5721 5723 5724 5725 5727 5728 5729 5732 5734 5735 5735 5736 5737 5737 5739 5740 5742 5743 5744 5744 5743 5743 5743 5742 5741 5741 5743 5743 5742 5743 5744 5746 5746 5746 5747 5749 5749 5750 5750 5751 5753 5752 5751 5751 5752 5753 5754 5755 5755 5756 5756 5756 5756 5755 5755 5755 5754 5755 5755 5754 5755 5755 5755 5755 5755 5755 5755 5755 5756 5756 5756 5756 5756 5756 5757 5757 5757 5758
5702 5703 5704 5705 5707 5708 5709 5710 5711 5713 5715 5716 5717 5717 5716 5716 5716 5716 5717 5720 5721 5721 5722 5724 5726 5728 5730 5732 5733 5734 5735 5735 5736 5737 5739 5740 5740 5741 5741 5742 5741 5740 5739 5739 5739 5740 5741 5741 5741 5742 5743 5743 5744 5745 5746 5747 5748 5748 5750 5751 5749 5748 5748 5749 5750 5752 5753 5754 5754 5754 5754 5754 5754 5753 5753 5753 5753 5753 5753 5753 5753 5753 5753 5753 5753 5753 5754 5754 5754 5754 5754 5754 5755 5755 5755 5756 5756
5699 5701 5702 5703 5704 5705 5707 5708 5708 5710 5712 5713 5714 5714 5713 5714 5714 5715 5716 5716 5717 5718 5719 5720 5723 5726 5727 5729 5731 5732 5733 5734 5734 5736 5737 5737 5738 5738 5738 5739 5738 5736 5736 5737 5737 5737 5738 5738 5738 5740 5740 5740 5741 5742 5743 5744 5745 5746 5747 5747 5746 5745 5746 5747 5748 5750 5751 5752 5752 5753 5752 5752 5752 5752 5751 5751 5751 5751 5751 5751 5751 5751 5751 5751 5751 5752 5752 5753 5753 5753 5753 5753 5753 5754 5754 5754 5754